Tracking 28888 objects as of 23-May-2024
HD Live streaming from Space Station
objects crossing your sky now

NANOSAT C BR2

Track NANOSAT C BR2 now!
10-day predictions
NANOSAT C BR2 is classified as:


NORAD ID: 47950
Int'l Code: 2021-022U
Perigee: 471.1 km
Apogee: 486.7 km
Inclination: 97.5 °
Period: 94.0 minutes
Semi major axis: 6849 km
RCS: Unknown
Launch date: March 22, 2021
Source: (TBD)
Launch site: TYURATAM MISSILE AND SPACE COMPLEX (TTMTR)

Uplink (MHz):
Downlink (MHz): 145.865
Beacon (MHz):
Mode: 1k2*/2k4/4k8/9k6BPSK
Call sign: NCBR2
Status: Active

Your satellite tracking list
Your tracking list is empty




NASA's NSSDC Master Catalog

Two Line Element Set (TLE):
1 47950U 21022U   24143.87721629  .00035486  00000-0  11679-2 0  9990
2 47950  97.4596  44.4078 0011384 206.2451 153.8215 15.31359044174889
Source of the keplerian elements: AFSPC